Total_Precipitation_Accumulation
0.51 0.31 0.55 0.57 0.51 0.42 0.35 0.37 0.40 0.41 0.36 0.31 0.29 0.27 0.24 0.21 0.20 0.20 0.21 0.18 0.19 0.19 0.22 0.23 0.25 0.30 0.31 0.30 0.36 0.45 0.51 0.40 0.37 0.35 0.29 0.29 0.33 0.30 0.33 0.45 0.79 1.05 0.54
0.30 0.27 0.56 0.58 0.48 0.39 0.33 0.33 0.37 0.36 0.36 0.32 0.30 0.29 0.23 0.20 0.20 0.20 0.19 0.17 0.16 0.16 0.18 0.20 0.25 0.31 0.33 0.32 0.40 0.48 0.48 0.45 0.46 0.47 0.42 0.43 0.39 0.34 0.35 0.40 0.74 0.99 0.61
0.29 0.30 0.44 0.59 0.55 0.47 0.41 0.37 0.36 0.39 0.39 0.34 0.32 0.31 0.26 0.21 0.20 0.20 0.18 0.15 0.15 0.17 0.17 0.19 0.24 0.30 0.36 0.43 0.44 0.45 0.43 0.47 0.50 0.59 0.77 1.11 0.76 0.47 0.45 0.42 0.55 0.59 0.53
0.35 0.35 0.42 0.63 0.64 0.59 0.51 0.47 0.47 0.47 0.44 0.39 0.34 0.31 0.28 0.24 0.22 0.24 0.21 0.18 0.17 0.19 0.22 0.23 0.24 0.29 0.36 0.44 0.45 0.43 0.39 0.45 0.51 0.57 0.79 1.11 1.06 0.75 0.63 0.60 0.66 0.52 0.49
0.34 0.37 0.53 0.72 0.68 0.68 0.61 0.57 0.57 0.54 0.50 0.44 0.39 0.36 0.35 0.32 0.27 0.27 0.25 0.23 0.25 0.26 0.28 0.29 0.28 0.33 0.38 0.39 0.36 0.34 0.37 0.49 0.60 0.52 0.70 0.92 1.22 1.00 0.73 0.78 0.83 0.70 0.56
0.39 0.40 0.54 0.67 0.64 0.65 0.64 0.65 0.68 0.58 0.54 0.48 0.42 0.42 0.43 0.39 0.35 0.34 0.35 0.37 0.36 0.38 0.36 0.37 0.37 0.40 0.41 0.41 0.37 0.37 0.48 0.55 0.52 0.62 0.73 0.95 1.22 1.04 0.84 0.85 0.86 0.95 0.74
0.48 0.42 0.44 0.55 0.57 0.64 0.62 0.59 0.68 0.66 0.64 0.53 0.46 0.44 0.44 0.42 0.43 0.43 0.47 0.49 0.50 0.50 0.46 0.46 0.46 0.42 0.42 0.47 0.43 0.43 0.53 0.53 0.60 0.75 0.73 0.93 0.94 0.94 0.86 0.83 0.91 1.11 1.00
0.60 0.50 0.42 0.49 0.56 0.61 0.62 0.68 0.81 0.81 0.73 0.59 0.49 0.49 0.49 0.51 0.50 0.50 0.51 0.51 0.57 0.63 0.61 0.55 0.53 0.45 0.45 0.50 0.48 0.48 0.58 0.61 0.60 0.65 0.58 0.76 0.95 1.00 0.82 0.82 0.90 1.07 1.16
0.87 0.73 0.58 0.56 0.60 0.70 0.78 0.82 0.94 0.98 0.90 0.72 0.58 0.58 0.58 0.54 0.50 0.49 0.54 0.55 0.57 0.61 0.63 0.60 0.58 0.52 0.51 0.51 0.51 0.53 0.64 0.67 0.63 0.60 0.47 0.69 0.96 0.92 0.76 0.73 0.78 0.94 1.08
0.93 0.88 0.79 0.74 0.75 0.82 0.88 1.02 1.11 1.21 1.31 1.07 0.78 0.69 0.65 0.55 0.50 0.52 0.53 0.56 0.60 0.68 0.67 0.65 0.65 0.60 0.61 0.57 0.52 0.50 0.57 0.54 0.52 0.49 0.53 0.63 0.88 0.94 0.73 0.66 0.67 0.69 0.79
0.68 0.72 0.77 0.80 0.86 0.86 0.82 0.89 1.11 1.29 1.46 1.20 0.83 0.85 0.77 0.55 0.55 0.60 0.60 0.71 0.76 0.80 0.81 0.80 0.81 0.79 0.76 0.67 0.59 0.52 0.43 0.31 0.41 0.47 0.51 0.61 0.86 0.90 0.68 0.57 0.47 0.51 0.54
0.55 0.52 0.54 0.57 0.66 0.73 0.72 0.93 1.18 1.22 1.34 1.09 0.92 0.95 0.92 0.97 0.90 0.70 0.69 0.87 0.97 1.02 0.97 0.95 0.98 0.90 0.77 0.59 0.56 0.49 0.29 0.25 0.34 0.42 0.42 0.63 0.91 0.88 0.69 0.51 0.41 0.42 0.40
0.43 0.40 0.39 0.41 0.44 0.53 0.74 0.98 1.20 1.25 1.29 1.33 1.36 1.22 1.20 1.16 0.96 0.79 0.75 0.80 0.86 0.94 0.89 0.98 0.98 0.83 0.72 0.58 0.52 0.38 0.26 0.27 0.36 0.39 0.46 0.63 0.87 0.85 0.73 0.56 0.42 0.39 0.37
0.46 0.44 0.38 0.30 0.31 0.39 0.53 0.75 1.03 1.10 1.16 1.24 1.24 1.04 1.13 1.13 0.95 0.89 0.97 1.00 0.97 0.94 1.06 1.10 1.05 0.98 0.81 0.63 0.58 0.52 0.42 0.32 0.38 0.42 0.56 0.53 0.76 0.85 0.76 0.64 0.49 0.42 0.38
0.53 0.61 0.59 0.43 0.37 0.39 0.45 0.50 0.64 0.74 0.85 1.13 1.21 0.95 0.93 0.95 0.99 1.02 0.93 1.06 1.12 1.12 1.12 1.10 1.01 0.95 0.91 0.79 0.76 0.73 0.64 0.47 0.45 0.46 0.59 0.49 0.56 0.75 0.80 0.72 0.62 0.50 0.42
0.36 0.49 0.57 0.55 0.54 0.52 0.45 0.40 0.40 0.46 0.59 0.74 0.76 0.72 0.75 0.78 0.87 1.04 0.97 0.96 1.03 1.21 1.26 1.19 1.09 1.09 1.05 0.86 0.81 0.87 0.76 0.65 0.60 0.59 0.65 0.54 0.38 0.41 0.58 0.68 0.65 0.58 0.48
0.26 0.32 0.42 0.50 0.56 0.58 0.59 0.58 0.48 0.47 0.54 0.56 0.56 0.62 0.69 0.69 0.82 0.98 0.93 0.84 0.82 0.97 1.15 1.26 1.28 1.20 1.05 0.93 0.84 0.85 0.76 0.70 0.67 0.77 0.72 0.64 0.49 0.31 0.36 0.52 0.58 0.57 0.56
0.25 0.25 0.31 0.36 0.43 0.53 0.62 0.69 0.66 0.62 0.58 0.52 0.49 0.47 0.50 0.52 0.61 0.79 0.86 0.77 0.76 0.92 1.13 1.27 1.34 1.35 1.20 1.13 1.08 0.94 0.83 0.75 0.70 0.78 0.78 0.73 0.69 0.52 0.46 0.40 0.44 0.48 0.54
0.25 0.23 0.24 0.28 0.33 0.40 0.51 0.58 0.58 0.57 0.54 0.52 0.52 0.41 0.39 0.41 0.53 0.72 0.90 0.92 0.93 1.02 1.12 1.18 1.33 1.35 1.34 1.23 1.13 0.97 0.86 0.81 0.71 0.66 0.74 0.75 0.77 0.69 0.64 0.45 0.34 0.33 0.41
0.24 0.24 0.24 0.26 0.27 0.31 0.36 0.43 0.48 0.46 0.44 0.50 0.49 0.47 0.51 0.58 0.65 0.83 1.05 1.13 1.24 1.25 1.26 1.40 1.65 1.60 1.39 1.33 1.25 1.01 0.81 0.78 0.74 0.70 0.64 0.70 0.80 0.78 0.65 0.57 0.47 0.27 0.26
0.18 0.18 0.19 0.24 0.26 0.25 0.24 0.29 0.34 0.35 0.44 0.51 0.59 0.64 0.69 0.72 0.79 1.00 1.21 1.43 1.55 1.41 1.38 1.55 1.78 1.89 1.66 1.49 1.45 1.25 1.03 0.82 0.75 0.75 0.69 0.73 0.82 0.85 0.78 0.76 0.64 0.51 0.37
0.05 0.09 0.13 0.15 0.17 0.17 0.18 0.23 0.32 0.39 0.45 0.58 0.74 0.85 0.87 0.85 0.90 0.95 1.15 1.35 1.41 1.43 1.44 1.52 1.67 1.92 1.82 1.62 1.66 1.85 1.58 1.26 0.83 0.65 0.72 0.78 0.86 0.87 0.78 0.68 0.66 0.63 0.54
0.02 0.03 0.07 0.11 0.14 0.14 0.22 0.41 0.68 0.92 1.01 1.02 1.04 1.19 1.28 1.24 1.19 1.16 1.19 1.32 1.40 1.51 1.50 1.52 1.53 1.70 1.80 1.71 1.72 2.09 1.87 1.60 1.43 0.94 0.73 0.80 0.90 0.95 0.87 0.80 0.78 0.76 0.64
0.03 0.03 0.04 0.09 0.15 0.18 0.35 0.68 1.07 1.39 1.48 1.49 1.61 1.65 1.71 1.63 1.50 1.47 1.47 1.56 1.50 1.47 1.42 1.42 1.43 1.55 1.80 1.80 1.73 1.66 1.62 1.57 1.75 1.47 0.99 0.84 0.89 0.89 0.89 0.82 0.83 0.88 0.85
0.10 0.11 0.14 0.20 0.34 0.50 0.65 0.83 1.13 1.32 1.44 1.58 1.74 1.88 1.99 2.11 2.08 2.00 1.92 1.77 1.59 1.50 1.48 1.51 1.50 1.54 1.61 1.67 1.64 1.58 1.58 1.51 1.32 1.37 1.32 1.08 0.92 0.84 0.84 0.85 0.87 0.89 0.96
0.24 0.27 0.31 0.41 0.51 0.58 0.70 0.84 0.98 1.07 1.23 1.43 1.58 1.75 1.88 2.00 2.03 1.97 1.84 1.61 1.44 1.37 1.42 1.52 1.53 1.54 1.53 1.56 1.53 1.42 1.39 1.36 1.26 1.32 1.22 1.20 1.23 0.93 0.78 0.74 0.79 0.81 0.83